Caldwell, NJ

8:39 PM EST on December 05, 2019 (GMT -0500)
Essex County

Weather History for KCDW - November, 2019

Change the Weather History Date:

Tuesday, November 12, 2019

  Actual Average Record
Temperature  
Mean Temperature 38 °F -  
Max Temperature 50 °F 52 °F 69 °F (1949)
Min Temperature 25 °F 33 °F 20 °F (1993)
Degree Days  
Heating Degree Days 28    
Moisture  
Dew Point 26 °F    
Average Humidity 64    
Maximum Humidity 89    
Minimum Humidity 37    
Precipitation  
Precipitation 0.04 in - - ()
Sea Level Pressure  
Sea Level Pressure 29.93 in    
Wind  
Wind Speed 5 mph ()    
Max Wind Speed 16 mph    
Max Gust Speed 28 mph    
Visibility 9.0 miles    
Events Rain    
Averages and records for this station are not official NWS values.
T = Trace of Precipitation, MM = Missing Value Source: Averaged Metar Reports

Daily Weather History Graph

Daily Weather History Graph

Search for Another Location

Airport or City:

Astronomy

Nov. 12, 2019 Rise Set
Actual Time 6:40 AM EST 4:41 PM EST
Civil Twilight 6:11 AM EST 5:10 PM EST
Nautical Twilight 5:38 AM EST 5:43 PM EST
Astronomical Twilight 5:05 AM EST 6:16 PM EST
Moon 5:07 PM EST (11/12) 6:29 AM EST (11/12)
Length of Visible Light 10h 59m
Length of Day
10h 01m
Full, 100% of the Moon is Illuminated
Nov 12
Full
Nov 19
Last Quarter
Nov 26
New
Dec 4
First Quarter
Dec 12
Full

Hourly Weather History & Observations

Time (EST) Temp. Windchill Dew Point Humidity Pressure Visibility Wind Dir Wind Speed Gust Speed Precip Events Conditions
12:53 AM 46.0 °F - 42.1 °F 86% 29.78 in 7.0 mi Calm Calm - N/A   Clear
1:53 AM 46.0 °F - 43.0 °F 89% 29.76 in 7.0 mi Calm Calm - N/A   Clear
2:53 AM 46.0 °F - 43.0 °F 89% 29.74 in 7.0 mi Calm Calm - N/A   Clear
3:53 AM 46.0 °F - 43.0 °F 89% 29.70 in 7.0 mi Calm Calm - N/A   Scattered Clouds
4:53 AM 48.9 °F - 45.0 °F 86% 29.73 in 8.0 mi WSW 3.5 mph - N/A   Clear
5:53 AM 50.0 °F - 46.0 °F 86% 29.72 in 8.0 mi Calm Calm - N/A   Overcast
6:53 AM 50.0 °F - 46.0 °F 86% 29.74 in 4.0 mi Calm Calm - 0.00 in Rain Light Rain
7:31 AM 46.0 °F 39.3 °F 41.0 °F 83% 29.78 in 7.0 mi NW 16.1 mph 27.6 mph 0.02 in Rain Light Rain
7:40 AM 44.1 °F 37.1 °F 37.9 °F 79% 29.79 in 10.0 mi NW 15.0 mph 24.2 mph 0.02 in Rain Light Rain
7:53 AM 43.0 °F 37.2 °F 36.0 °F 76% 29.83 in 10.0 mi NW 10.4 mph 19.6 mph 0.02 in Rain Light Rain
8:53 AM 39.9 °F 33.9 °F 33.1 °F 77% 29.85 in 10.0 mi NW 9.2 mph - 0.02 in Rain Light Rain
9:53 AM 39.0 °F 33.4 °F 32.0 °F 76% 29.86 in 10.0 mi NW 8.1 mph - 0.00 in   Overcast
10:53 AM 37.0 °F 29.3 °F 26.1 °F 65% 29.91 in 10.0 mi NW 11.5 mph 24.2 mph N/A   Overcast
12:53 PM 34.0 °F 27.2 °F 19.9 °F 56% 29.97 in 10.0 mi NNW 8.1 mph 19.6 mph N/A   Overcast
1:53 PM 33.1 °F 23.9 °F 17.1 °F 52% 29.98 in 10.0 mi NNW 12.7 mph 24.2 mph N/A   Overcast
2:53 PM 33.1 °F 26.1 °F 18.0 °F 54% 29.99 in 10.0 mi NNW 8.1 mph 19.6 mph N/A   Scattered Clouds
3:53 PM 34.0 °F 26.0 °F 17.1 °F 50% 30.01 in 10.0 mi NNW 10.4 mph 19.6 mph N/A   Clear
4:53 PM 33.1 °F 24.4 °F 12.9 °F 43% 30.05 in 10.0 mi NW 11.5 mph 23.0 mph N/A   Clear
5:53 PM 32.0 °F 22.5 °F 12.9 °F 45% 30.08 in 10.0 mi NW 12.7 mph 27.6 mph N/A   Clear
6:53 PM 30.0 °F 19.5 °F 9.0 °F 41% 30.12 in 10.0 mi NNW 13.8 mph 24.2 mph N/A   Clear
7:53 PM 28.9 °F 19.8 °F 8.1 °F 41% 30.15 in 10.0 mi NNW 10.4 mph 18.4 mph N/A   Clear
8:53 PM 27.0 °F 18.7 °F 3.9 °F 37% 30.18 in 10.0 mi NNW 8.1 mph - N/A   Clear
9:53 PM 26.1 °F 15.0 °F 3.9 °F 39% 30.20 in 10.0 mi NNW 12.7 mph 19.6 mph N/A   Clear
10:53 PM 25.0 °F 14.2 °F 3.9 °F 41% 30.20 in 10.0 mi NW 11.5 mph - N/A   Clear
11:53 PM 25.0 °F 13.6 °F 3.9 °F 41% 30.22 in 10.0 mi NW 12.7 mph 18.4 mph N/A   Clear